Home > Weather > Thun > Past weeks

Flag for Switzerland Past Weather in Thun, Bern, Switzerland — Yesterday and Last 2 Weeks

Now
70 °F

Sunny.


Feels Like: 70 °F
Forecast: 57 / 89 °F
Wind: No wind

Location: Bern / Belp

Current Time: Aug 24, 2016 at 9:56:13 PM

Latest Report: Aug 24, 2016 at 9:20 PM


Visibility: 10 mi

Pressure: 30.12 "Hg (28.23 "Hg at 557m altitude)

Humidity: 88%

Dew Point: 66 °F

Location of ThunLocation

Past Weather in Thun — Graph

°F

Thun Temperature Yesterday

Maximum temperature yesterday: 81 °F (at 2:50 PM)
Minimum temperature yesterday: 48 °F (at 6:50 AM)
Average temperature yesterday: 65 °F

High & Low Weather Summary for the Past Weeks

 TemperatureHumidityPressure
High88 °F (Aug 24, 6:20 PM)100% (Aug 10, 5:50 AM)30.39 "Hg (Aug 10, 5:50 AM)
Low45 °F (Aug 11, 6:20 AM)33% (Aug 14, 5:20 PM)29.86 "Hg (Aug 17, 4:20 PM)
Average65 °F77%30.15 "Hg
* Reported Aug 9 8:20 PM — Aug 24 8:20 PM, Thun, Weather by CustomWeather, © 2016

Note: Actual official high and low records may vary slightly from our data, if they occured in-between our weather recording intervals... More about our weather records

Advertising

Thun Weather History for the Previous 24 Hours

Scroll right to see more
 ConditionsComfort  
Time TempWeatherWind HumidityBarometerVisibility
8:20 PM
Wed, Aug 24
75 °FSunny.2 mph78%30.12 "Hg10 mi
7:50 PM81 °FPassing clouds.3 mph66%30.12 "HgN/A
7:20 PM84 °FSunny.2 mph55%30.12 "Hg10 mi
6:50 PM86 °FSunny.3 mph55%30.12 "Hg10 mi
6:20 PM88 °FSunny.3 mph43%30.12 "Hg10 mi
5:50 PM86 °FSunny.3 mph52%30.12 "Hg10 mi
5:20 PM86 °FSunny.3 mph46%30.15 "Hg10 mi
4:50 PM86 °FSunny.3 mph49%30.15 "Hg10 mi
4:20 PM86 °FPassing clouds.5 mph52%30.15 "HgN/A
3:50 PM84 °FSunny.2 mph55%30.15 "Hg10 mi
3:20 PM84 °FSunny.2 mph55%30.15 "Hg10 mi
2:50 PM84 °FSunny.2 mph55%30.18 "Hg10 mi
2:20 PM84 °FSunny.1 mph55%30.18 "Hg10 mi
1:50 PM81 °FSunny.2 mph58%30.18 "Hg10 mi
1:20 PM79 °FPassing clouds.3 mph61%30.18 "HgN/A
12:50 PM79 °FSunny.2 mph61%30.21 "Hg10 mi
12:20 PM77 °FSunny.2 mph61%30.21 "Hg10 mi
11:50 AM75 °FSunny.2 mph65%30.21 "Hg10 mi
11:20 AM73 °FSunny.2 mph74%30.24 "Hg10 mi
10:50 AM72 °FSunny.3 mph73%30.24 "Hg10 mi
10:20 AM70 °FSunny.2 mph73%30.24 "Hg10 mi
9:50 AM68 °FSunny.2 mph73%30.24 "Hg10 mi
9:20 AM66 °FSunny.1 mph83%30.24 "Hg10 mi
8:50 AM64 °FSunny.1 mph83%30.24 "Hg10 mi
8:20 AM59 °FSunny.1 mph94%30.24 "Hg10 mi
7:50 AM55 °FSunny.No wind100%30.24 "Hg10 mi
7:20 AM52 °FFog.1 mph100%30.24 "HgN/A
6:50 AM52 °FFog.1 mph100%30.24 "HgN/A
6:20 AM52 °FClear.1 mph100%30.24 "Hg10 mi
5:50 AM52 °FClear.1 mph100%30.24 "Hg10 mi
5:20 AM54 °FCool.2 mph100%30.24 "Hg4 mi
4:50 AM54 °FClear.3 mph100%30.24 "Hg10 mi
4:20 AM55 °FFog.1 mph100%30.24 "Hg1 mi
3:50 AM54 °FClear.No wind100%30.24 "Hg10 mi
3:20 AM54 °FFog.1 mph100%30.24 "Hg4 mi
2:50 AM55 °FFog.1 mph100%30.24 "Hg4 mi
2:20 AM55 °FClear.1 mph100%30.24 "Hg10 mi
1:50 AM55 °FClear.No wind100%30.24 "Hg10 mi
1:20 AM57 °FClear.1 mph100%30.24 "Hg10 mi
12:50 AM57 °FClear.No wind100%30.24 "Hg10 mi
12:20 AM57 °FClear.1 mph100%30.24 "Hg10 mi
11:50 PM
Tue, Aug 23
59 °FClear.1 mph100%30.24 "Hg10 mi
11:20 PM61 °FClear.2 mph94%30.24 "Hg10 mi
10:50 PM61 °FClear.2 mph94%30.24 "Hg10 mi
10:20 PM63 °FClear.1 mph88%30.24 "Hg10 mi
9:50 PM64 °FClear.2 mph83%30.27 "Hg10 mi
9:20 PM66 °FSunny.2 mph83%30.24 "Hg10 mi
Weather by CustomWeather, © 2016

See weather overviewHow to use our weather pages